User: anonymous   Login
Location: Unspecified
(0.0000°N, 0.0000°E)
Time: 16:14:52
(UTC+00:00)
Language:

Geos 2 - Orbit

View from above orbital plane
View from above orbital plane
View from above satellite
View from above satellite

Ground track
Ground track

The orbit data is extracted from the following two-line orbital elements,

1 10981U 78071A   18111.69828500 +.00000081 +00000-0 +00000-0 0  9991
2 10981 012.2827 319.5208 0006054 320.7655 235.2960 00.99374734144398
Epoch (UTC): 21 April 2018 16:45:31
Eccentricity: 0.0006054
inclination: 12.2827°
perigee height: 36014 km
apogee height: 36065 km
right ascension of ascending node: 319.5208°
argument of perigee: 320.7655°
revolutions per day: 0.99374734
mean anomaly at epoch: 235.2960°
orbit number at epoch: 14439

The dashed part of the orbit path shows where the satellite is in the earth's shadow,  

DLR